Airfield :
LOGIN :

Register | Disclaimer

   EN    FR    IT 

 










Legend :    VFR   Marginal VFR   IFR   Intensive IFR   Very Intensive IFR
Visi :
Ceiling :
>= 8 km
>= 3000ft
5 to 8 km
1000 to 3000 ft
1500m to 5 km
500 to 1000 ft
800 to 1500m
200 to 500 ft
< 800m
< 200 ft
Symbols :   Thunderstorms  Fog  Heavy snow  Heavy precipitations  Wind > 20 kt
SIGMETs :     Misc.  Thunderstorms  Icing  Turbulence  Mountain Waves  Volcanic Ashes






- Airport Elevation : 141 ft
- IATA code : SKS


EKSP - Srydstrup Vojens

CURRENT METAR :
  • 050220Z 06003KT CAVOK 13/11 Q1013

EXPIRED METARs :
  • 050150Z 05002KT CAVOK 13/11 Q1014
  • 050120Z 03002KT CAVOK 13/11 Q1014
  • 050050Z 04002KT CAVOK 13/11 Q1014
  • 050020Z 04002KT CAVOK 13/11 Q1014
  • 042350Z 01002KT CAVOK 13/11 Q1014

TAF TAF EKSP
Valid from the 05 at 00:00 until the 06 at 00:00 UTC


042325Z 0500/0524 VRB03KT 9999 SCT040
TEMPO 0505/0512 -SHRA SCT030CB
BECMG 0507/0510 11010KT



MET'MAP, your aeronautical weather chart ! - Copyright ORBIFLY December 2007 - Disclaimer

ORBIFLY MET'MAP TEAM :

Programming & Development : Alexandra Zaïnal
Concept & original design : Baudouin d'Aumeries
Assistance for programming : Marc-Olivier Méhu
Technical & hardware support : Manuel Goepfert

Contact : metmap@orbifly.com




SOURCES & CREDITS :

   NOAA